Weather History for KBDN - May, 2014

Change the Weather History Date:

Monday, May 19, 2014

  Actual Average (KRDM) Record (KRDM)
Temperature  
Mean Temperature 52 °F 52 °F  
Max Temperature 62 °F 68 °F 89 °F (2008)
Min Temperature 41 °F 36 °F 24 °F (1987)
Degree Days  
Heating Degree Days 14 13  
Month to date heating degree days 289  
Since 1 July heating degree days 6360  
Cooling Degree Days 0 0  
Month to date cooling degree days 0  
Year to date cooling degree days 0  
Growing Degree Days 2 (Base 50)    
Moisture  
Dew Point 37 °F    
Average Humidity 63    
Maximum Humidity 87    
Minimum Humidity 32    
Precipitation  
Precipitation 0.00 in 0.04 in 0.44 in (1968)
Month to date precipitation 0.58  
Year to date precipitation 3.59  
Sea Level Pressure  
Sea Level Pressure 29.97 in    
Wind  
Wind Speed 4 mph (NW)    
Max Wind Speed 13 mph    
Max Gust Speed -    
Visibility 10 miles    
Events Rain    
T = Trace of Precipitation, MM = Missing Value Source: NWS Daily Summary

Daily Weather History Graph

Daily Weather History Graph

Search for Another Location

Airport or City:

Trip Planner

Search our weather history database for the weather conditions in past years. The results will help you decide how hot, cold, wet, or windy it might be!

Date:

Astronomy

May. 19, 2014 Rise Set
Actual Time 5:34 AM PDT 8:28 PM PDT
Civil Twilight 5:00 AM PDT 9:03 PM PDT
Nautical Twilight 4:17 AM PDT 9:46 PM PDT
Astronomical Twilight 3:26 AM PDT 10:37 PM PDT
Moon 12:17 AM PDT (5/19) 10:41 AM PDT (5/19)
Length of Visible Light 16h 02m
Length of Day
14h 54m
Waning Gibbous, 70% of the Moon is Illuminated
May 19
Waning Gibbous
May 21
Last Quarter
May 28
New
Jun 5
First Quarter
Jun 12
Full

Hourly Weather History & Observations

Time (PDT) Temp. Windchill Dew Point Humidity Pressure Visibility Wind Dir Wind Speed Gust Speed Precip Events Conditions
12:15 AM 42.8 °F 41.1 °F 37.4 °F 81% 29.95 in 10.0 mi SE 3.5 mph - N/A   Scattered Clouds
12:35 AM 42.8 °F - 37.4 °F 81% 29.95 in 10.0 mi Calm Calm - N/A   Mostly Cloudy
12:55 AM 42.8 °F 40.1 °F 37.4 °F 81% 29.95 in 10.0 mi ESE 4.6 mph - N/A   Overcast
1:15 AM 42.8 °F - 37.4 °F 81% 29.95 in 10.0 mi Calm Calm - N/A   Mostly Cloudy
1:35 AM 42.8 °F 40.1 °F 37.4 °F 81% 29.95 in 10.0 mi SE 4.6 mph - N/A   Mostly Cloudy
1:55 AM 42.8 °F - 37.4 °F 81% 29.95 in 10.0 mi Calm Calm - N/A   Mostly Cloudy
2:15 AM 42.8 °F 41.1 °F 37.4 °F 81% 29.95 in 10.0 mi SE 3.5 mph - N/A   Mostly Cloudy
2:35 AM 44.6 °F - 35.6 °F 71% 29.95 in 10.0 mi Calm Calm - N/A   Mostly Cloudy
2:55 AM 44.6 °F 40.7 °F 35.6 °F 71% 29.95 in 10.0 mi South 6.9 mph - N/A   Partly Cloudy
3:15 AM 42.8 °F 39.3 °F 35.6 °F 76% 29.94 in 10.0 mi South 5.8 mph - N/A   Clear
3:35 AM 42.8 °F 38.6 °F 35.6 °F 76% 29.94 in 10.0 mi SSW 6.9 mph - N/A   Mostly Cloudy
3:55 AM 42.8 °F 38.0 °F 35.6 °F 76% 29.94 in 10.0 mi SSW 8.1 mph - N/A   Mostly Cloudy
4:15 AM 42.8 °F - 35.6 °F 76% 29.94 in 10.0 mi Calm Calm - N/A   Scattered Clouds
4:35 AM 41.0 °F - 35.6 °F 81% 29.94 in 10.0 mi Calm Calm - N/A   Partly Cloudy
4:55 AM 41.0 °F 39.0 °F 35.6 °F 81% 29.94 in 10.0 mi NW 3.5 mph - N/A   Partly Cloudy
5:35 AM 41.0 °F - 35.6 °F 81% 29.95 in 10.0 mi Calm Calm - N/A   Scattered Clouds
6:35 AM 41.0 °F - 37.4 °F 87% 29.96 in 10.0 mi Calm Calm - N/A   Partly Cloudy
7:55 AM 44.6 °F - 37.4 °F 76% 29.98 in 10.0 mi Calm Calm - N/A   Clear
8:15 AM 46.4 °F - 37.4 °F 71% 29.98 in 10.0 mi Calm Calm - N/A   Clear
8:35 AM 46.4 °F 45.2 °F 37.4 °F 71% 29.97 in 10.0 mi NNW 3.5 mph - N/A   Clear
8:55 AM 48.2 °F - 37.4 °F 66% 29.98 in 10.0 mi Calm Calm - N/A   Clear
9:15 AM 48.2 °F - 35.6 °F 62% 29.98 in 10.0 mi Calm Calm - N/A   Clear
9:35 AM 50.0 °F - 35.6 °F 58% 29.98 in 10.0 mi Calm Calm - N/A   Scattered Clouds
9:55 AM 48.2 °F - 35.6 °F 62% 29.97 in 10.0 mi Calm Calm - N/A   Scattered Clouds
10:15 AM 50.0 °F - 35.6 °F 58% 29.97 in 10.0 mi Calm Calm - N/A   Mostly Cloudy
10:35 AM 50.0 °F - 35.6 °F 58% 29.97 in 10.0 mi Calm Calm - N/A   Mostly Cloudy
11:15 AM 50.0 °F - 35.6 °F 58% 29.98 in 10.0 mi NW 4.6 mph - N/A   Mostly Cloudy
11:35 AM 51.8 °F - 37.4 °F 58% 29.98 in 10.0 mi WSW 5.8 mph - N/A   Mostly Cloudy
11:55 AM 51.8 °F - 37.4 °F 58% 29.98 in 10.0 mi SSW 3.5 mph - N/A   Mostly Cloudy
12:15 PM 53.6 °F - 37.4 °F 54% 29.98 in 10.0 mi West 4.6 mph - N/A   Mostly Cloudy
12:35 PM 53.6 °F - 37.4 °F 54% 29.98 in 10.0 mi NW 5.8 mph - N/A   Mostly Cloudy
12:55 PM 53.6 °F - 35.6 °F 51% 29.97 in 10.0 mi Calm Calm - N/A   Scattered Clouds
1:35 PM 55.4 °F - 35.6 °F 47% 29.96 in 10.0 mi NW 8.1 mph - N/A   Scattered Clouds
1:55 PM 55.4 °F - 35.6 °F 47% 29.96 in 10.0 mi NNE 6.9 mph - N/A   Partly Cloudy
2:15 PM 57.2 °F - 35.6 °F 44% 29.96 in 10.0 mi North 8.1 mph - N/A   Partly Cloudy
2:35 PM 57.2 °F - 35.6 °F 44% 29.95 in 10.0 mi Calm Calm - N/A   Mostly Cloudy
2:55 PM 57.2 °F - 35.6 °F 44% - 10.0 mi East 5.8 mph - N/A   Scattered Clouds
3:15 PM 59.0 °F - 35.6 °F 42% 29.94 in 10.0 mi North 5.8 mph - N/A   Mostly Cloudy
4:15 PM 59.0 °F - 33.8 °F 39% 29.93 in 10.0 mi North 10.4 mph - N/A   Mostly Cloudy
4:35 PM 62.6 °F - 32.0 °F 32% 29.93 in 10.0 mi NNW 8.1 mph - N/A   Scattered Clouds
4:55 PM 62.6 °F - 33.8 °F 34% 29.93 in 10.0 mi North 12.7 mph - N/A   Mostly Cloudy
5:15 PM 59.0 °F - 33.8 °F 39% 29.93 in 10.0 mi NNE 10.4 mph - N/A   Mostly Cloudy
5:35 PM 59.0 °F - 35.6 °F 42% 29.94 in 10.0 mi North 10.4 mph - N/A   Mostly Cloudy
5:55 PM 59.0 °F - 35.6 °F 42% 29.94 in 10.0 mi North 9.2 mph - N/A   Mostly Cloudy
6:15 PM 59.0 °F - 35.6 °F 42% 29.95 in 10.0 mi NNE 10.4 mph - N/A   Mostly Cloudy
6:35 PM 59.0 °F - 35.6 °F 42% 29.95 in 10.0 mi North 10.4 mph - N/A   Mostly Cloudy
6:55 PM 59.0 °F - 35.6 °F 42% 29.95 in 10.0 mi NNE 8.1 mph - N/A   Mostly Cloudy
7:15 PM 57.2 °F - 35.6 °F 44% 29.96 in 10.0 mi NNE 9.2 mph - N/A   Mostly Cloudy
7:35 PM 57.2 °F - 35.6 °F 44% 29.98 in 10.0 mi NE 6.9 mph - N/A   Mostly Cloudy
7:55 PM 55.4 °F - 37.4 °F 51% 29.98 in 10.0 mi East 4.6 mph - N/A   Mostly Cloudy
8:15 PM 53.6 °F - 39.2 °F 58% 29.99 in 10.0 mi SW 9.2 mph - N/A   Overcast
8:35 PM 53.6 °F - 39.2 °F 58% 30.00 in 10.0 mi SW 9.2 mph - N/A   Mostly Cloudy
8:55 PM 53.6 °F - 41.0 °F 62% 30.00 in 10.0 mi West 6.9 mph - N/A Rain Light Rain
9:15 PM 51.8 °F - 42.8 °F 71% 30.01 in 10.0 mi West 5.8 mph - N/A Rain Light Rain
9:35 PM 50.0 °F - 41.0 °F 71% 30.02 in 10.0 mi WNW 6.9 mph - N/A   Scattered Clouds
9:55 PM 50.0 °F - 42.8 °F 76% 30.03 in 10.0 mi Calm Calm - N/A Rain Light Rain
10:15 PM 50.0 °F - 42.8 °F 76% 30.04 in 10.0 mi South 5.8 mph - N/A   Mostly Cloudy
10:35 PM 48.2 °F - 42.8 °F 82% 30.04 in 10.0 mi Calm Calm - N/A   Scattered Clouds
11:15 PM 48.2 °F - 42.8 °F 82% 30.04 in 10.0 mi WSW 5.8 mph - N/A   Partly Cloudy
11:35 PM 46.4 °F 45.2 °F 41.0 °F 81% 30.03 in 10.0 mi West 3.5 mph - N/A   Clear
11:55 PM 44.6 °F - 41.0 °F 87% 30.04 in 10.0 mi Calm Calm - N/A   Clear